This is the latest recevied weather packets stored in our database for station/object N7WSS. If no packets are shown the sender has not sent any weather packets the latest 10 day(s).
| Time | Temp. | Humidity | Pressure | Rain* | Wind** | Luminosity | Snow |
|---|---|---|---|---|---|---|---|
| 1788017373 | 33.89° C | 34% | 1015.2 hPa | 0 mm | - | - | - |
| 1788017069 | 33.33° C | 35% | 1015.2 hPa | 0 mm | - | - | - |
| 1788016768 | 33.89° C | 34% | 1015.2 hPa | 0 mm | - | - | - |
| 1788016466 | 33.33° C | 35% | 1015 hPa | 0 mm | - | - | - |
| 1788016161 | 32.78° C | 35% | 1015.3 hPa | 0 mm | - | - | - |
| 1788015860 | 32.78° C | 36% | 1015.2 hPa | 0 mm | - | - | - |
| 1788015555 | 33.33° C | 36% | 1015 hPa | 0 mm | - | - | - |
| 1788015249 | 32.22° C | 36% | 1015 hPa | 0 mm | - | - | - |
| 1788014949 | 31.67° C | 38% | 1015 hPa | 0 mm | - | - | - |
| 1788014649 | 31.67° C | 37% | 1015.1 hPa | 0 mm | - | - | - |
| 1788014344 | 31.11° C | 39% | 1015.1 hPa | 0 mm | - | - | - |
| 1788014039 | 30° C | 40% | 1014.9 hPa | 0 mm | - | - | - |
| 1788013738 | 30° C | 41% | 1015 hPa | 0 mm | - | - | - |
| 1788013438 | 30° C | 41% | 1014.9 hPa | 0 mm | - | - | - |
| 1788013137 | 29.44° C | 41% | 1014.9 hPa | 0 mm | - | - | - |
| 1788012836 | 28.89° C | 42% | 1014.8 hPa | 0 mm | - | - | - |
| 1788012532 | 28.33° C | 43% | 1014.8 hPa | 0 mm | - | - | - |
| 1788012227 | 27.78° C | 45% | 1014.9 hPa | 0 mm | - | - | - |
| 1788011926 | 27.22° C | 46% | 1014.9 hPa | 0 mm | - | - | - |
| 1788011624 | 26.67° C | 47% | 1015 hPa | 0 mm | - | - | - |
| 1788011321 | 26.67° C | 47% | 1014.8 hPa | 0 mm | - | - | - |
| 1788011019 | 26.67° C | 49% | 1014.7 hPa | 0 mm | - | - | - |
| 1788010715 | 26.67° C | 48% | 1014.7 hPa | 0 mm | - | - | - |
| 1788010413 | 26.11° C | 49% | 1014.5 hPa | 0 mm | - | - | - |
| 1788010108 | 26.11° C | 52% | 1014.7 hPa | 0 mm | - | - | - |
* Rain latest hour (hover to see other rain measurements)
** Current wind speed in m/s (hover to see current wind gust speed)